Tulsa Jones, OK

5:23 PM CST on January 20, 2018 (GMT -0600)
Jones Jr.

Weather History for KRVS - July, 2013

Change the Weather History Date:

Friday, July 19, 2013

  Actual Average (KTUL) Record (KTUL)
Temperature  
Mean Temperature 84 °F -  
Max Temperature 98 °F 95 °F 113 °F (1936)
Min Temperature 72 °F 74 °F 58 °F (2014)
Cooling Degree Days 20    
Growing Degree Days 34 (Base 50)    
Moisture  
Dew Point 70 °F    
Average Humidity 63    
Maximum Humidity 97    
Minimum Humidity 36    
Precipitation  
Precipitation 0.00 in - - ()
Sea Level Pressure  
Sea Level Pressure 29.99 in    
Wind  
Wind Speed 2 mph (SW)    
Max Wind Speed 9 mph    
Max Gust Speed -    
Visibility 10 miles    
Events      
Averages and records for this station are not official NWS values.
T = Trace of Precipitation, MM = Missing Value Source: NWS Daily Summary

Daily Weather History Graph

Daily Weather History Graph

Search for Another Location

Airport or City:

Trip Planner

Search our weather history database for the weather conditions in past years. The results will help you decide how hot, cold, wet, or windy it might be!

Date:

Astronomy

Jul. 19, 2013 Rise Set
Actual Time 6:21 AM CDT 8:38 PM CDT
Civil Twilight 5:52 AM CDT 9:07 PM CDT
Nautical Twilight 5:16 AM CDT 9:43 PM CDT
Astronomical Twilight 4:37 AM CDT 10:22 PM CDT
Moon 5:42 PM CDT (7/19) 3:03 AM CDT (7/19)
Length of Visible Light 15h 15m
Length of Day
14h 16m
Waxing Gibbous, 87% of the Moon is Illuminated
Jul 19
Waxing Gibbous
Jul 22
Full
Jul 29
Last Quarter
Aug 6
New
Aug 14
First Quarter

Hourly Weather History & Observations

Time (CDT) Temp. Heat Index Dew Point Humidity Pressure Visibility Wind Dir Wind Speed Gust Speed Precip Events Conditions
12:53 AM 77.0 °F - 72.0 °F 84% 30.04 in 10.0 mi Calm Calm - N/A   Clear
1:53 AM 78.1 °F - 72.0 °F 81% 30.03 in 10.0 mi Calm Calm - N/A   Clear
2:53 AM 75.0 °F - 71.1 °F 87% 30.02 in 10.0 mi Calm Calm - N/A   Clear
3:53 AM 73.0 °F - 71.1 °F 93% 30.02 in 9.0 mi Calm Calm - N/A   Clear
4:53 AM 72.0 °F - 71.1 °F 97% 30.02 in 8.0 mi Calm Calm - N/A   Clear
5:53 AM 73.0 °F - 71.1 °F 93% 30.03 in 10.0 mi Calm Calm - N/A   Clear
6:53 AM 73.0 °F - 70.0 °F 90% 30.04 in 9.0 mi Calm Calm - N/A   Clear
7:53 AM 78.1 °F - 70.0 °F 76% 30.04 in 10.0 mi South 4.6 mph - N/A   Clear
8:53 AM 82.0 °F 86.3 °F 71.1 °F 69% 30.05 in 8.0 mi SW 4.6 mph - N/A   Clear
9:53 AM 86.0 °F 92.2 °F 72.0 °F 63% 30.04 in 10.0 mi WSW 3.5 mph - N/A   Clear
10:53 AM 90.0 °F 96.9 °F 72.0 °F 55% 30.04 in 10.0 mi SW 8.1 mph - N/A   Clear
11:53 AM 91.9 °F 98.4 °F 71.1 °F 50% 30.02 in 10.0 mi SW 6.9 mph - N/A   Clear
12:53 PM 93.0 °F 97.9 °F 69.1 °F 45% 30.00 in 10.0 mi Calm Calm - N/A   Clear
1:53 PM 95.0 °F 99.0 °F 66.9 °F 40% 29.98 in 10.0 mi SW 4.6 mph - N/A   Partly Cloudy
2:53 PM 93.9 °F 98.6 °F 68.0 °F 43% 29.96 in 10.0 mi WSW 5.8 mph - N/A   Partly Cloudy
3:53 PM 96.1 °F 101.0 °F 68.0 °F 40% 29.94 in 10.0 mi Variable 5.8 mph - N/A   Partly Cloudy
4:53 PM 97.0 °F 100.4 °F 66.0 °F 36% 29.92 in 10.0 mi SSW 9.2 mph - N/A   Partly Cloudy
5:53 PM 95.0 °F 99.0 °F 66.9 °F 40% 29.90 in 10.0 mi Variable 5.8 mph - N/A   Clear
6:53 PM 93.9 °F 97.5 °F 66.9 °F 41% 29.90 in 10.0 mi SW 6.9 mph - N/A   Partly Cloudy
7:53 PM 91.9 °F 95.9 °F 68.0 °F 45% 29.92 in 10.0 mi SSW 4.6 mph - N/A   Clear
8:53 PM 87.1 °F 91.3 °F 69.1 °F 55% 29.91 in 10.0 mi Calm Calm - N/A   Clear
9:53 PM 84.0 °F 88.4 °F 70.0 °F 63% 29.94 in 10.0 mi SSW 9.2 mph - N/A   Clear
10:53 PM 82.9 °F 87.0 °F 70.0 °F 65% 29.96 in 10.0 mi South 5.8 mph - N/A   Clear
11:53 PM 81.0 °F 84.4 °F 70.0 °F 69% 29.95 in 10.0 mi SSW 4.6 mph - N/A   Clear